• In Czech Republic
  • List of Countries
  • For 7 days
  • Water Temperature
  • Satellite Maps
  • Weather Map
  • Weather Widgets
  • user-avatar
    Login

    Hourly Weather Overijse

    Today, 14 December, Thursday

    Time Temperature Precipitation Wind Pressure Humidity
    00:00 +3°C° 0.1 mm 5 mps 735 mmHg 84%
    01:00 +3°C° 0.6 mm 7 mps 735 mmHg 80%
    02:00 +2°C° 0.6 mm 8 mps 735 mmHg 77%
    03:00 +2°C° 0.6 mm 9 mps 735 mmHg 74%
    04:00 +1°C° 0 mm 8 mps 736 mmHg 74%
    05:00 +1°C° 0 mm 8 mps 736 mmHg 73%
    06:00 0°C° 0 mm 7 mps 737 mmHg 73%
    07:00 0°C° 0.1 mm 7 mps 737 mmHg 74%
    08:00 +2°C° 0.1 mm 7 mps 738 mmHg 75%
    09:00 +2°C° 0.1 mm 7 mps 738 mmHg 76%
    10:00 +3°C° 0.4 mm 7 mps 738 mmHg 75%
    11:00 +3°C° 0.4 mm 7 mps 737 mmHg 73%
    12:00 +4°C° 0.4 mm 7 mps 737 mmHg 72%
    13:00 +3°C° 0.2 mm 7 mps 736 mmHg 73%
    14:00 +3°C° 0.2 mm 6 mps 736 mmHg 74%
    15:00 +3°C° 0.2 mm 5 mps 735 mmHg 75%
    16:00 +3°C° 0.1 mm 4 mps 735 mmHg 77%
    17:00 +3°C° 0.1 mm 4 mps 735 mmHg 80%
    18:00 +1°C° 0.1 mm 4 mps 735 mmHg 83%
    19:00 +1°C° 0 mm 4 mps 735 mmHg 84%
    20:00 +1°C° 0 mm 4 mps 735 mmHg 85%
    21:00 0°C° 0 mm 4 mps 735 mmHg 87%
    22:00 0°C° 0 mm 4 mps 735 mmHg 87%
    23:00 0°C° 0 mm 4 mps 735 mmHg 87%

    Tomorrow, 15 December, Friday

    Time Temperature Precipitation Wind Pressure Humidity
    00:00 0°C° 0 mm 4 mps 735 mmHg 87%
    01:00 0°C° 0 mm 4 mps 735 mmHg 87%
    02:00 0°C° 0 mm 5 mps 735 mmHg 87%
    03:00 -1°C° 0 mm 5 mps 736 mmHg 87%
    04:00 0°C° 0 mm 4 mps 736 mmHg 87%
    05:00 0°C° 0 mm 4 mps 736 mmHg 88%
    06:00 0°C° 0 mm 4 mps 736 mmHg 89%
    07:00 0°C° 0 mm 4 mps 736 mmHg 89%
    08:00 0°C° 0 mm 4 mps 737 mmHg 90%
    09:00 +2°C° 0 mm 3 mps 737 mmHg 91%
    10:00 +2°C° 0 mm 3 mps 737 mmHg 88%
    11:00 +3°C° 0 mm 3 mps 738 mmHg 86%
    12:00 +4°C° 0 mm 3 mps 738 mmHg 83%
    13:00 +4°C° 0 mm 3 mps 739 mmHg 85%
    14:00 +4°C° 0 mm 2 mps 739 mmHg 88%
    15:00 +4°C° 0 mm 2 mps 740 mmHg 90%
    16:00 +4°C° 0 mm 2 mps 740 mmHg 90%
    17:00 +4°C° 0 mm 2 mps 741 mmHg 91%
    18:00 +3°C° 0 mm 2 mps 742 mmHg 91%
    19:00 +3°C° 0 mm 2 mps 743 mmHg 91%
    20:00 +3°C° 0 mm 2 mps 743 mmHg 90%
    21:00 +3°C° 0 mm 2 mps 744 mmHg 90%
    22:00 +3°C° 0 mm 2 mps 745 mmHg 90%
    23:00 +2°C° 0 mm 2 mps 745 mmHg 90%

    Day after tomorrow, 16 December, Saturday

    Time Temperature Precipitation Wind Pressure Humidity
    00:00 +2°C° 0 mm 2 mps 746 mmHg 90%
    01:00 +1°C° 0.1 mm 3 mps 746 mmHg 90%
    02:00 +1°C° 0.1 mm 3 mps 747 mmHg 90%
    03:00 +1°C° 0.1 mm 3 mps 747 mmHg 89%
    04:00 +1°C° 0.2 mm 3 mps 748 mmHg 89%
    05:00 +1°C° 0.2 mm 3 mps 748 mmHg 89%
    06:00 +1°C° 0.2 mm 3 mps 749 mmHg 88%
    07:00 +1°C° 0.2 mm 3 mps 750 mmHg 87%
    08:00 +2°C° 0.2 mm 3 mps 750 mmHg 86%
    09:00 +1°C° 0.2 mm 4 mps 751 mmHg 85%
    10:00 +1°C° 0.2 mm 4 mps 751 mmHg 82%
    11:00 +2°C° 0.2 mm 5 mps 751 mmHg 78%
    12:00 +3°C° 0.2 mm 5 mps 752 mmHg 75%
    13:00 +2°C° 0.3 mm 5 mps 752 mmHg 76%
    14:00 +2°C° 0.3 mm 5 mps 753 mmHg 78%
    15:00 +2°C° 0.3 mm 5 mps 753 mmHg 80%
    16:00 +1°C° 0.1 mm 4 mps 754 mmHg 82%
    17:00 +1°C° 0.1 mm 4 mps 754 mmHg 85%
    18:00 0°C° 0.1 mm 4 mps 755 mmHg 87%
    19:00 0°C° 0.1 mm 4 mps 755 mmHg 86%
    20:00 0°C° 0.1 mm 4 mps 756 mmHg 85%
    21:00 0°C° 0.1 mm 4 mps 756 mmHg 84%
    22:00 0°C° 0.2 mm 4 mps 756 mmHg 84%
    23:00 0°C° 0.2 mm 5 mps 756 mmHg 84%

    17 December, Sunday

    Time Temperature Precipitation Wind Pressure Humidity
    00:00 +1°C° 0.2 mm 5 mps 757 mmHg 84%
    01:00 +1°C° 0.2 mm 4 mps 757 mmHg 86%
    02:00 +1°C° 0.2 mm 4 mps 757 mmHg 87%
    03:00 +1°C° 0.2 mm 4 mps 757 mmHg 89%
    04:00 +1°C° 0.1 mm 3 mps 758 mmHg 90%
    05:00 +1°C° 0.1 mm 3 mps 758 mmHg 92%
    06:00 +1°C° 0.1 mm 3 mps 758 mmHg 93%
    07:00 +2°C° 0 mm 2 mps 759 mmHg 93%
    08:00 +2°C° 0 mm 2 mps 759 mmHg 93%
    09:00 +2°C° 0 mm 2 mps 760 mmHg 92%
    10:00 +3°C° 0 mm 2 mps 760 mmHg 89%
    11:00 +4°C° 0 mm 2 mps 760 mmHg 86%
    12:00 +4°C° 0 mm 3 mps 760 mmHg 83%
    13:00 +3°C° 0 mm 3 mps 760 mmHg 85%
    14:00 +3°C° 0 mm 3 mps 760 mmHg 87%
    15:00 +4°C° 0 mm 2 mps 760 mmHg 88%
    16:00 +2°C° 0 mm 3 mps 761 mmHg 90%
    17:00 +2°C° 0 mm 3 mps 761 mmHg 91%
    18:00 +1°C° 0 mm 3 mps 761 mmHg 92%
    19:00 +1°C° 0.1 mm 4 mps 761 mmHg 92%
    20:00 +2°C° 0.1 mm 5 mps 760 mmHg 93%
    21:00 +2°C° 0.1 mm 5 mps 760 mmHg 93%
    22:00 +3°C° 0.4 mm 6 mps 760 mmHg 93%
    23:00 +4°C° 0.4 mm 6 mps 759 mmHg 93%

    18 December, Monday

    Time Temperature Precipitation Wind Pressure Humidity
    00:00 +5°C° 0.4 mm 7 mps 759 mmHg 93%
    01:00 +5°C° 0.7 mm 7 mps 758 mmHg 92%
    02:00 +6°C° 0.7 mm 8 mps 758 mmHg 92%
    03:00 +6°C° 0.7 mm 8 mps 758 mmHg 91%
    04:00 +6°C° 0.8 mm 8 mps 758 mmHg 92%
    05:00 +6°C° 0.8 mm 7 mps 758 mmHg 93%
    06:00 +8°C° 0.8 mm 7 mps 758 mmHg 93%
    07:00 +8°C° 0.4 mm 6 mps 758 mmHg 93%
    08:00 +8°C° 0.4 mm 6 mps 758 mmHg 93%
    09:00 +8°C° 0.4 mm 5 mps 758 mmHg 94%
    10:00 +8°C° 0.1 mm 5 mps 759 mmHg 91%
    11:00 +8°C° 0.1 mm 5 mps 759 mmHg 89%
    12:00 +8°C° 0.1 mm 5 mps 759 mmHg 87%
    13:00 +7°C° 0 mm 5 mps 759 mmHg 86%
    14:00 +7°C° 0 mm 4 mps 760 mmHg 85%
    15:00 +6°C° 0 mm 4 mps 760 mmHg 83%
    16:00 +7°C° 0 mm 3 mps 760 mmHg 85%
    17:00 +6°C° 0 mm 2 mps 761 mmHg 87%
    18:00 +5°C° 0 mm 2 mps 762 mmHg 89%
    19:00 +5°C° 0 mm 1 mps 762 mmHg 89%
    20:00 +5°C° 0 mm 1 mps 763 mmHg 89%
    21:00 +5°C° 0 mm 1 mps 763 mmHg 89%
    22:00 +5°C° 0 mm 1 mps 763 mmHg 89%
    23:00 +4°C° 0 mm 1 mps 763 mmHg 89%

    19 December, Tuesday

    Time Temperature Precipitation Wind Pressure Humidity
    00:00 +4°C° 0 mm 1 mps 764 mmHg 89%
    01:00 +4°C° 0 mm 1 mps 764 mmHg 89%
    02:00 +4°C° 0 mm 1 mps 764 mmHg 89%
    03:00 +4°C° 0 mm 1 mps 764 mmHg 89%
    04:00 +4°C° 0 mm 1 mps 765 mmHg 89%
    05:00 +4°C° 0 mm 1 mps 765 mmHg 88%
    06:00 +3°C° 0 mm 1 mps 765 mmHg 87%
    07:00 +4°C° 0 mm 1 mps 765 mmHg 86%
    08:00 +3°C° 0 mm 2 mps 766 mmHg 84%
    09:00 +3°C° 0 mm 2 mps 766 mmHg 83%
    10:00 +4°C° 0 mm 2 mps 766 mmHg 80%
    11:00 +5°C° 0 mm 2 mps 766 mmHg 76%
    12:00 +6°C° 0 mm 2 mps 766 mmHg 73%
    13:00 +6°C° 0 mm 2 mps 766 mmHg 76%
    14:00 +6°C° 0 mm 2 mps 766 mmHg 78%
    15:00 +5°C° 0 mm 2 mps 766 mmHg 80%
    16:00 +5°C° 0 mm 2 mps 766 mmHg 82%
    17:00 +4°C° 0 mm 2 mps 767 mmHg 84%
    18:00 +4°C° 0 mm 2 mps 767 mmHg 86%
    19:00 +3°C° 0 mm 2 mps 767 mmHg 86%
    20:00 +3°C° 0 mm 2 mps 768 mmHg 86%
    21:00 +3°C° 0 mm 2 mps 768 mmHg 86%
    22:00 +3°C° 0 mm 2 mps 768 mmHg 86%
    23:00 +3°C° 0 mm 2 mps 768 mmHg 86%
    Show more